SCP
-0 -0 -0 0 -0 0 -0 0 0 0 0 0 0 0 0 0 0 0 0 0 0 0 0 0 0 0 0 0 0 0 0 0 0 0 0 0 0 0 0 0 0 0 0
0 0 -0 -0 0 0 0 0 -0 0 0 0 0 0 0 0 0 0 0 0 0 0 0 0 0 0 0 0 0 0 0 0 0 0 0 0 0 0 0 0 0 0 0
0 0 0 -0 0 0 0 0 0 0 0 0 0 0 0 0 0 0 0 0 0 0 0 0 0 0 0 0 0 0 0 0 0 0 0 0 0 0 0 0 0 0 0
0 0 0 0 0 0 0 0 0 0 0 0 0 0 0 0 0 0 0 0 0 0 0 0 0 0 0 0 0 0 0 0 0 0 0 0 0 0 0 0 0 0 0
0 0 0 0 0 0 0 0 0 0 0 0 0 0 0 0 0 0 0 0 0 0 0 0 0 0 0 0 0 0 0 0 0 0 0 0 0 0 0 0 0 0 0
0 0 0 0 0 0 0 0 0 0 0 0 0 0 0 0 0 0 0 0 0 0 0 0 0 0 0 0 0 0 0 0 0 0 0 0 0 0 0 0 0 0 0
0 0 0 0 0 0 0 0 0 0 0 0 0 0 0 0 0 0 0 0 0 0 0 0 0 0 0 0 0 0 0 0 0 0 0 0 0 0 0 0 0 0 0
0 0 0 0 0 0 0 0 0 0 0 0 0 0 0 0 0 0 0 0 0 0 0 0 0 0 0 0 0 0 0 0 0 0 0 0 0 0 0 0 0 0 0
0 0 -0 0 0 0 0 0 0 0 0 0 0 0 0 0 0 0 0 0 0 0 0 0 0 0 0 0 0 0 0 0 0 0 0 0 0 0 0 0 0 0 0
0 -0 -0 0 0 0 0 0 0 0 0 0 0 0 0 0 0 0 0 0 0 0 0 0 0 0 0 0 0 0 0 0 0 0 0 0 0 0 0 0 0 0 0
0 0 0 0 0 0 0 0 0 0 0 0 0 0 0 0 0 0 0 0 0 0 0 0 0 0 0 0 0 0 0 0 0 0 0 0 0 0 0 0 0 0 0
-0 0 0 0 0 0 0 0 0 0 0 0 0 0 0 0 0 0 0 0 0 0 0 0 0 0 0 0 0 0 0 0 0 0 0 0 0 0 0 0 0 0 0
0 0 0 0 0 0 -0 -0 -0 -0 0 0 0 0 0 0 0 0 0 0 0 0 0 0 0 0 0 0 0 0 0 0 0 0 0 0 0 0 0 0 0 0 0
-0 -0 0 0 0 0 0 -0 -0 -0 -0 0 0 0 0 0 0 0 0 0 0 0 0 0 0 0 0 0 0 0 0 0 0 0 0 0 0 0 0 0 0 0 0
0 0 0 0 0 0 0 0 0 -0 0 0 0 0 0 -0 -0 0 0 0 0 0 0 0 0 0 0 0 0 0 0 0 0 0 0 0 0 0 0 0 0 0 0
0 0 0 0 0 0 0 0 0 0 -0 0 0 0 0 0 -0 0 0 0 -0 0 0 0 0 0 0 0 0 0 0 0 0 0 0 0 0 0 0 0 0 0 0
0 0 0 0 0 0 0 0 0 0 0 0 -0 -0 -0 -0 -0 -0 -0 -0 -0 0 0 0 0 0 0 0 0 0 0 0 0 0 0 0 0 0 0 0 0 0 0
0 0 0 0 0 -0 -0 0 0 0 0 0 0 0 -0 -0 -0 -0 -0 0 0 0 0 0 0 0 0 0 0 0 0 0 0 0 0 0 0 0 0 0 0 0 0
0 0 0 0 0 -0 -0 -0 -0 -0 -0 -0 0 0 0 -0 -0 0 0 0 0 0 0 0 0 0 0 0 0 0 0 0 0 0 0 0 0 0 0 0 0 0 0
0 0 0 0 0 0 0 0 -0 -0 -0 0 0 0 0 0 0 0 0 0 0 0 0 0 0 0 0 0 0 0 0 0 0 0 0 0 0 0 0 0 0 0 0
0 0 0 0 -0 -0 -0 -0 0 0 0 0 0 0 0 0 0 0 0 0 0 0 0 0 0 0 0 0 0 0 0 0 0 0 0 0 0 0 0 0 0 0 0
0 0 0 0 0 0 0 0 0 0 0 0 0 0 0 0 0 0 0 0 0 0 0 0 0 0 0 0 0 0 0 0 0 0 0 0 0 0 0 0 0 0 0
0 0 0 0 0 0 0 0 0 0 0 0 0 0 0 0 0 0 0 0 0 0 0 0 0 0 0 0 0 0 0 0 0 0 0 0 0 0 0 0 0 0 0
0 0 0 0 0 0 0 0 0 0 0 0 0 0 0 0 0 0 0 0 0 0 0 0 0 0 0 0 0 0 0 0 0 0 0 0 0 0 0 0 0 0 0
0 0 0 0 0 0 0 0 0 0 0 0 0 0 0 0 0 0 0 0 0 0 0 0 0 0 0 0 0 0 0 0 0 0 0 0 0 0 0 0 0 0 0
0 0 0 0 0 0 0 0 0 0 0 0 0 0 0 0 0 0 0 0 0 0 0 0 0 0 0 0 0 0 0 0 0 0 0 0 0 0 0 0 0 0 0
Wind_Speed_500mb
34 38 41 37 35 52 61 61 54 65 60 53 57 73 73 68 65 66 66 70 86 83 81 79 77 72 67 56 46 34 21 28 35 32 18 19 21 19 15 17 18 19 20
36 32 37 40 32 36 48 50 42 49 40 43 36 46 78 70 68 69 71 73 79 82 81 65 62 51 44 34 34 32 29 21 19 19 29 27 20 15 13 12 13 16 18
35 31 32 38 37 32 30 52 56 52 42 45 43 50 64 56 55 70 76 78 70 56 54 52 45 39 32 27 25 17 13 14 19 22 29 23 16 7 8 8 10 13 14
38 40 30 32 37 32 33 34 36 55 59 61 61 48 23 33 36 39 42 43 37 48 45 42 44 39 35 28 22 22 27 24 22 24 21 19 14 9 4 4 6 8 10
33 40 40 24 27 31 32 28 26 47 62 58 52 38 50 46 46 52 47 41 49 56 51 46 42 38 33 30 29 29 27 24 23 21 16 14 12 6 4 5 5 5 7
33 37 36 32 18 21 28 24 22 32 45 46 31 70 65 61 65 60 57 61 66 62 60 51 44 40 40 36 32 29 29 25 19 14 13 10 7 3 2 6 8 8 7
33 34 35 27 23 18 17 19 19 21 22 23 48 76 79 75 81 74 69 69 65 58 57 51 47 39 35 33 32 28 25 20 15 10 8 7 5 4 6 10 11 10 10
34 34 30 24 22 18 13 16 18 20 26 33 41 32 34 39 41 55 61 65 63 59 53 46 44 44 36 29 25 22 20 17 13 10 7 6 6 7 9 11 13 15 15
29 28 26 26 17 16 16 19 21 31 40 43 47 50 43 57 58 60 67 69 66 56 48 44 38 31 30 25 19 16 17 14 9 6 7 8 8 9 11 14 15 15 13
22 20 24 23 12 14 18 26 30 34 45 56 64 64 68 71 63 61 64 69 67 61 49 38 36 27 20 22 17 14 10 9 5 6 9 12 13 14 14 13 13 15 15
17 14 14 10 11 17 27 37 44 56 65 69 70 71 74 71 69 63 57 56 52 54 50 39 33 30 25 19 14 10 4 3 3 7 10 11 12 14 14 15 15 14 11
9 6 1 6 13 25 36 47 58 66 72 78 82 79 72 67 61 54 54 53 49 37 41 42 33 24 16 12 10 3 2 3 5 7 9 9 11 14 16 15 15 14 14
13 13 14 16 26 35 45 56 65 71 77 76 76 76 69 61 63 57 51 45 42 40 37 34 24 18 12 10 6 2 4 6 6 7 9 11 14 16 15 14 13 14 16
37 36 32 31 33 43 52 58 61 62 66 66 64 62 64 61 56 52 47 43 41 39 30 22 17 13 10 6 2 1 3 4 6 10 13 15 13 12 11 11 12 13 15
44 43 41 38 38 41 43 43 44 49 50 52 54 51 52 50 47 45 41 37 29 23 19 18 13 7 3 3 5 5 5 6 10 12 14 14 12 10 9 8 10 13 16
35 33 34 33 30 28 33 38 33 27 24 27 28 26 30 34 38 37 33 29 24 18 17 11 7 7 9 10 9 8 9 11 12 13 13 13 10 8 8 10 13 19 24
29 34 28 20 15 13 13 14 15 21 24 24 27 30 28 29 29 27 25 21 15 12 14 12 14 15 15 12 12 13 15 12 11 11 10 8 7 9 11 15 22 26 28
8 11 12 13 13 13 15 15 13 11 17 24 26 25 25 25 23 19 19 20 19 19 17 17 16 16 15 17 18 16 13 11 10 9 10 10 11 13 17 20 24 28 32
8 8 9 10 10 12 13 14 16 17 19 17 19 23 26 25 23 22 23 20 17 19 18 17 15 17 19 19 18 16 14 12 12 13 13 13 13 14 17 21 26 29 33
16 15 15 15 14 13 12 12 12 13 16 20 19 19 22 28 29 25 15 14 13 14 16 18 21 22 21 21 19 17 15 17 18 16 15 13 13 15 19 24 28 32 35
22 22 21 18 14 12 11 10 11 14 15 15 17 21 22 22 20 22 22 19 19 23 26 28 27 24 22 22 21 20 21 21 18 15 13 12 13 17 22 27 32 35 36
31 28 24 19 16 15 14 16 17 19 21 23 24 26 30 31 29 26 26 31 33 34 33 31 28 27 26 24 23 23 22 18 14 12 11 12 16 21 26 29 32 33 32
36 34 29 24 24 25 27 29 30 30 29 29 29 29 32 33 30 32 36 38 38 39 39 36 33 31 28 25 24 21 18 14 13 10 10 15 21 25 28 29 29 29 28
45 42 40 35 33 31 32 35 37 37 35 34 34 34 36 40 39 38 41 42 44 44 41 36 32 29 27 25 22 19 17 13 9 9 13 19 23 25 25 24 25 30 38
49 47 45 44 40 35 35 36 36 35 35 35 35 37 40 43 45 45 45 45 43 39 34 31 29 27 25 22 20 18 13 8 9 13 17 21 22 22 22 26 33 36 39
49 47 44 42 39 35 34 32 31 31 31 31 34 36 38 40 40 41 41 41 38 34 32 30 28 26 23 21 18 12 11 11 13 16 18 18 18 20 26 30 35 41 46
Wind_Direction_500mb
284 289 294 295 280 257 261 263 260 254 235 234 255 248 242 236 238 241 243 240 237 240 243 245 245 235 226 210 197 180 176 156 149 138 183 209 229 250 275 290 299 300 299
281 284 297 293 289 256 253 261 260 257 253 262 248 262 254 246 235 238 239 233 232 232 240 230 211 192 178 173 168 160 157 154 132 175 200 206 209 234 259 292 307 321 324
291 290 295 297 291 269 256 250 252 253 258 260 257 268 251 244 245 234 224 219 218 211 193 169 169 172 163 153 152 139 111 147 177 193 195 193 193 225 274 301 323 320 310
303 304 295 293 294 287 268 265 261 252 249 255 250 254 223 198 156 155 164 152 153 167 170 173 170 169 162 159 137 154 171 168 165 181 184 176 186 198 224 274 279 288 294
300 308 308 289 287 283 275 267 243 246 234 245 222 211 160 158 163 164 166 169 181 183 169 165 157 144 130 137 160 156 148 152 157 165 165 159 148 158 228 269 298 319 299
296 304 311 298 280 273 270 267 258 232 245 229 219 184 185 182 183 186 181 180 175 171 162 145 131 139 145 148 148 143 138 135 133 141 154 153 141 131 303 315 333 335 324
296 303 307 306 284 264 261 268 254 226 239 235 206 188 175 179 186 183 174 162 152 143 135 132 137 141 144 140 136 134 131 127 131 135 142 124 89 42 0 344 333 331 331
303 306 308 299 282 267 235 238 234 198 188 189 188 178 158 149 161 156 146 139 131 127 126 135 137 134 129 127 127 128 126 131 118 104 91 54 31 10 354 344 338 342 338
311 314 308 292 276 259 221 210 195 190 174 171 166 176 185 137 140 135 132 124 116 123 129 124 122 126 136 133 129 133 124 107 96 72 52 29 16 10 3 348 339 331 334
313 312 299 285 262 227 207 185 175 175 164 160 153 148 144 137 131 133 130 127 128 135 138 136 134 128 140 148 142 120 103 96 71 28 10 6 6 2 358 346 338 340 354
314 315 295 276 236 201 182 164 159 153 146 141 137 132 128 126 128 129 129 128 130 135 138 143 154 154 144 138 134 128 101 45 18 10 6 0 355 352 349 345 343 344 350
351 335 232 183 188 177 168 158 152 150 145 138 133 127 128 130 129 129 126 131 136 143 158 152 147 143 139 142 149 120 26 11 19 7 352 343 343 344 345 341 337 338 340
58 83 107 133 153 156 153 151 145 144 138 136 135 137 139 137 133 137 144 147 154 152 147 142 142 144 152 145 142 93 39 27 2 334 332 342 348 339 327 328 337 344 342
81 82 92 112 127 135 137 136 138 141 142 143 138 133 134 143 148 151 156 157 156 155 152 151 144 151 159 159 127 352 338 320 313 325 330 332 323 318 326 338 338 343 340
93 98 101 100 103 110 118 122 125 129 138 142 144 149 153 156 160 160 158 156 153 149 153 164 164 161 179 237 244 250 276 298 315 319 321 319 318 325 325 317 329 332 335
80 96 106 112 121 131 137 136 135 131 135 144 152 159 163 159 154 155 154 158 162 163 173 185 201 232 243 245 244 259 285 292 299 310 310 305 306 305 316 338 335 337 340
101 102 102 107 118 127 134 136 146 151 150 148 146 147 153 159 165 165 167 174 178 205 221 227 231 240 246 250 264 268 264 268 281 292 294 299 301 323 339 339 334 334 333
150 143 147 150 149 148 146 145 143 161 164 164 165 166 167 174 182 188 203 213 219 228 234 235 238 244 252 257 258 257 264 277 291 308 304 297 307 318 322 324 325 324 323
160 166 159 156 151 147 147 152 163 169 172 180 190 194 194 200 210 216 230 233 234 232 230 234 249 262 264 260 259 264 275 288 299 296 288 289 296 302 309 314 316 317 318
200 190 185 183 176 170 172 180 188 194 201 202 204 210 221 221 223 228 231 232 241 242 255 265 274 272 263 262 265 270 279 286 287 278 273 275 286 299 306 309 312 315 318
218 216 212 209 204 201 203 208 219 229 233 229 223 224 225 230 240 248 241 250 262 270 272 272 273 264 262 263 265 269 271 270 261 254 259 272 289 298 304 310 313 316 319
224 221 224 223 231 249 259 257 251 247 245 244 242 243 242 240 238 250 263 265 266 268 271 274 273 265 260 255 255 259 262 252 242 242 257 280 297 304 306 309 315 320 324
232 235 237 240 244 250 258 265 268 268 261 251 246 246 257 261 255 257 258 259 262 265 266 266 260 253 246 244 246 248 239 228 224 241 277 295 299 303 309 314 322 326 325
232 233 235 237 240 247 256 260 260 261 258 251 247 247 250 258 261 257 255 255 257 259 258 253 247 239 234 238 236 225 218 214 229 267 283 292 303 309 315 325 329 328 326
231 232 232 234 238 247 255 257 256 255 250 245 241 244 248 251 253 252 252 252 253 251 245 241 233 226 231 225 212 207 209 229 252 273 289 301 308 314 322 329 330 328 327
228 228 231 233 238 254 265 262 254 249 244 241 245 248 249 250 249 251 251 248 244 235 227 221 217 222 214 202 200 210 229 249 272 292 300 303 310 327 330 328 325 325 328
Wind_Speed_850mb
34 38 41 37 35 52 61 61 54 65 60 53 57 73 73 68 65 66 66 70 86 83 81 79 77 72 67 56 46 34 21 28 35 32 18 19 21 19 15 17 18 19 20
36 32 37 40 32 36 48 50 42 49 40 43 36 46 78 70 68 69 71 73 79 82 81 65 62 51 44 34 34 32 29 21 19 19 29 27 20 15 13 12 13 16 18
35 31 32 38 37 32 30 52 56 52 42 45 43 50 64 56 55 70 76 78 70 56 54 52 45 39 32 27 25 17 13 14 19 22 29 23 16 7 8 8 10 13 14
38 40 30 32 37 32 33 34 36 55 59 61 61 48 23 33 36 39 42 43 37 48 45 42 44 39 35 28 22 22 27 24 22 24 21 19 14 9 4 4 6 8 10
33 40 40 24 27 31 32 28 26 47 62 58 52 38 50 46 46 52 47 41 49 56 51 46 42 38 33 30 29 29 27 24 23 21 16 14 12 6 4 5 5 5 7
33 37 36 32 18 21 28 24 22 32 45 46 31 70 65 61 65 60 57 61 66 62 60 51 44 40 40 36 32 29 29 25 19 14 13 10 7 3 2 6 8 8 7
33 34 35 27 23 18 17 19 19 21 22 23 48 76 79 75 81 74 69 69 65 58 57 51 47 39 35 33 32 28 25 20 15 10 8 7 5 4 6 10 11 10 10
34 34 30 24 22 18 13 16 18 20 26 33 41 32 34 39 41 55 61 65 63 59 53 46 44 44 36 29 25 22 20 17 13 10 7 6 6 7 9 11 13 15 15
29 28 26 26 17 16 16 19 21 31 40 43 47 50 43 57 58 60 67 69 66 56 48 44 38 31 30 25 19 16 17 14 9 6 7 8 8 9 11 14 15 15 13
22 20 24 23 12 14 18 26 30 34 45 56 64 64 68 71 63 61 64 69 67 61 49 38 36 27 20 22 17 14 10 9 5 6 9 12 13 14 14 13 13 15 15
17 14 14 10 11 17 27 37 44 56 65 69 70 71 74 71 69 63 57 56 52 54 50 39 33 30 25 19 14 10 4 3 3 7 10 11 12 14 14 15 15 14 11
9 6 1 6 13 25 36 47 58 66 72 78 82 79 72 67 61 54 54 53 49 37 41 42 33 24 16 12 10 3 2 3 5 7 9 9 11 14 16 15 15 14 14
13 13 14 16 26 35 45 56 65 71 77 76 76 76 69 61 63 57 51 45 42 40 37 34 24 18 12 10 6 2 4 6 6 7 9 11 14 16 15 14 13 14 16
37 36 32 31 33 43 52 58 61 62 66 66 64 62 64 61 56 52 47 43 41 39 30 22 17 13 10 6 2 1 3 4 6 10 13 15 13 12 11 11 12 13 15
44 43 41 38 38 41 43 43 44 49 50 52 54 51 52 50 47 45 41 37 29 23 19 18 13 7 3 3 5 5 5 6 10 12 14 14 12 10 9 8 10 13 16
35 33 34 33 30 28 33 38 33 27 24 27 28 26 30 34 38 37 33 29 24 18 17 11 7 7 9 10 9 8 9 11 12 13 13 13 10 8 8 10 13 19 24
29 34 28 20 15 13 13 14 15 21 24 24 27 30 28 29 29 27 25 21 15 12 14 12 14 15 15 12 12 13 15 12 11 11 10 8 7 9 11 15 22 26 28
8 11 12 13 13 13 15 15 13 11 17 24 26 25 25 25 23 19 19 20 19 19 17 17 16 16 15 17 18 16 13 11 10 9 10 10 11 13 17 20 24 28 32
8 8 9 10 10 12 13 14 16 17 19 17 19 23 26 25 23 22 23 20 17 19 18 17 15 17 19 19 18 16 14 12 12 13 13 13 13 14 17 21 26 29 33
16 15 15 15 14 13 12 12 12 13 16 20 19 19 22 28 29 25 15 14 13 14 16 18 21 22 21 21 19 17 15 17 18 16 15 13 13 15 19 24 28 32 35
22 22 21 18 14 12 11 10 11 14 15 15 17 21 22 22 20 22 22 19 19 23 26 28 27 24 22 22 21 20 21 21 18 15 13 12 13 17 22 27 32 35 36
31 28 24 19 16 15 14 16 17 19 21 23 24 26 30 31 29 26 26 31 33 34 33 31 28 27 26 24 23 23 22 18 14 12 11 12 16 21 26 29 32 33 32
36 34 29 24 24 25 27 29 30 30 29 29 29 29 32 33 30 32 36 38 38 39 39 36 33 31 28 25 24 21 18 14 13 10 10 15 21 25 28 29 29 29 28
45 42 40 35 33 31 32 35 37 37 35 34 34 34 36 40 39 38 41 42 44 44 41 36 32 29 27 25 22 19 17 13 9 9 13 19 23 25 25 24 25 30 38
49 47 45 44 40 35 35 36 36 35 35 35 35 37 40 43 45 45 45 45 43 39 34 31 29 27 25 22 20 18 13 8 9 13 17 21 22 22 22 26 33 36 39
49 47 44 42 39 35 34 32 31 31 31 31 34 36 38 40 40 41 41 41 38 34 32 30 28 26 23 21 18 12 11 11 13 16 18 18 18 20 26 30 35 41 46
Wind_Direction_850mb
284 289 294 295 280 257 261 263 260 254 235 234 255 248 242 236 238 241 243 240 237 240 243 245 245 235 226 210 197 180 176 156 149 138 183 209 229 250 275 290 299 300 299
281 284 297 293 289 256 253 261 260 257 253 262 248 262 254 246 235 238 239 233 232 232 240 230 211 192 178 173 168 160 157 154 132 175 200 206 209 234 259 292 307 321 324
291 290 295 297 291 269 256 250 252 253 258 260 257 268 251 244 245 234 224 219 218 211 193 169 169 172 163 153 152 139 111 147 177 193 195 193 193 225 274 301 323 320 310
303 304 295 293 294 287 268 265 261 252 249 255 250 254 223 198 156 155 164 152 153 167 170 173 170 169 162 159 137 154 171 168 165 181 184 176 186 198 224 274 279 288 294
300 308 308 289 287 283 275 267 243 246 234 245 222 211 160 158 163 164 166 169 181 183 169 165 157 144 130 137 160 156 148 152 157 165 165 159 148 158 228 269 298 319 299
296 304 311 298 280 273 270 267 258 232 245 229 219 184 185 182 183 186 181 180 175 171 162 145 131 139 145 148 148 143 138 135 133 141 154 153 141 131 303 315 333 335 324
296 303 307 306 284 264 261 268 254 226 239 235 206 188 175 179 186 183 174 162 152 143 135 132 137 141 144 140 136 134 131 127 131 135 142 124 89 42 0 344 333 331 331
303 306 308 299 282 267 235 238 234 198 188 189 188 178 158 149 161 156 146 139 131 127 126 135 137 134 129 127 127 128 126 131 118 104 91 54 31 10 354 344 338 342 338
311 314 308 292 276 259 221 210 195 190 174 171 166 176 185 137 140 135 132 124 116 123 129 124 122 126 136 133 129 133 124 107 96 72 52 29 16 10 3 348 339 331 334
313 312 299 285 262 227 207 185 175 175 164 160 153 148 144 137 131 133 130 127 128 135 138 136 134 128 140 148 142 120 103 96 71 28 10 6 6 2 358 346 338 340 354
314 315 295 276 236 201 182 164 159 153 146 141 137 132 128 126 128 129 129 128 130 135 138 143 154 154 144 138 134 128 101 45 18 10 6 0 355 352 349 345 343 344 350
351 335 232 183 188 177 168 158 152 150 145 138 133 127 128 130 129 129 126 131 136 143 158 152 147 143 139 142 149 120 26 11 19 7 352 343 343 344 345 341 337 338 340
58 83 107 133 153 156 153 151 145 144 138 136 135 137 139 137 133 137 144 147 154 152 147 142 142 144 152 145 142 93 39 27 2 334 332 342 348 339 327 328 337 344 342
81 82 92 112 127 135 137 136 138 141 142 143 138 133 134 143 148 151 156 157 156 155 152 151 144 151 159 159 127 352 338 320 313 325 330 332 323 318 326 338 338 343 340
93 98 101 100 103 110 118 122 125 129 138 142 144 149 153 156 160 160 158 156 153 149 153 164 164 161 179 237 244 250 276 298 315 319 321 319 318 325 325 317 329 332 335
80 96 106 112 121 131 137 136 135 131 135 144 152 159 163 159 154 155 154 158 162 163 173 185 201 232 243 245 244 259 285 292 299 310 310 305 306 305 316 338 335 337 340
101 102 102 107 118 127 134 136 146 151 150 148 146 147 153 159 165 165 167 174 178 205 221 227 231 240 246 250 264 268 264 268 281 292 294 299 301 323 339 339 334 334 333
150 143 147 150 149 148 146 145 143 161 164 164 165 166 167 174 182 188 203 213 219 228 234 235 238 244 252 257 258 257 264 277 291 308 304 297 307 318 322 324 325 324 323
160 166 159 156 151 147 147 152 163 169 172 180 190 194 194 200 210 216 230 233 234 232 230 234 249 262 264 260 259 264 275 288 299 296 288 289 296 302 309 314 316 317 318
200 190 185 183 176 170 172 180 188 194 201 202 204 210 221 221 223 228 231 232 241 242 255 265 274 272 263 262 265 270 279 286 287 278 273 275 286 299 306 309 312 315 318
218 216 212 209 204 201 203 208 219 229 233 229 223 224 225 230 240 248 241 250 262 270 272 272 273 264 262 263 265 269 271 270 261 254 259 272 289 298 304 310 313 316 319
224 221 224 223 231 249 259 257 251 247 245 244 242 243 242 240 238 250 263 265 266 268 271 274 273 265 260 255 255 259 262 252 242 242 257 280 297 304 306 309 315 320 324
232 235 237 240 244 250 258 265 268 268 261 251 246 246 257 261 255 257 258 259 262 265 266 266 260 253 246 244 246 248 239 228 224 241 277 295 299 303 309 314 322 326 325
232 233 235 237 240 247 256 260 260 261 258 251 247 247 250 258 261 257 255 255 257 259 258 253 247 239 234 238 236 225 218 214 229 267 283 292 303 309 315 325 329 328 326
231 232 232 234 238 247 255 257 256 255 250 245 241 244 248 251 253 252 252 252 253 251 245 241 233 226 231 225 212 207 209 229 252 273 289 301 308 314 322 329 330 328 327
228 228 231 233 238 254 265 262 254 249 244 241 245 248 249 250 249 251 251 248 244 235 227 221 217 222 214 202 200 210 229 249 272 292 300 303 310 327 330 328 325 325 328